Tracking 20715 objects as of 27-May-2020
HD Live streaming from Space Station
objects crossing your sky now

ATLAS 3B CENTAUR R/B

Track ATLAS 3B CENTAUR R/B now!
10-day predictions


NORAD ID: 28538
Int'l Code: 2005-004B
Perigee: 1,031.2 km
Apogee: 1,178.4 km
Inclination: 63.8 °
Period: 107.2 minutes
Semi major axis: 7475 km
RCS: Unknown
Launch date: February 3, 2005
Source: United States (US)
Launch site: AIR FORCE EASTERN TEST RANGE (AFETR)

Note: This is a ROCKET BODY
aabbcc
Your satellite tracking list
Your tracking list is empty




NASA's NSSDC Master Catalog

Two Line Element Set (TLE):
1 28538U 05004B   20141.95751821 0.00000000  00000-0  00000-0 0    04
2 28538  63.8303 122.7422 0098479  52.3393 307.6607 13.43132421    06
Source of the keplerian elements: McCants